QPF
0.00 0.00 0.00 0.00 0.00 0.00 0.00 0.01 0.01 0.00 0.00 0.02 0.02 0.00 0.00 0.00 0.01 0.00 0.01 0.03 0.01 0.00 0.01 0.02 0.03 0.06 0.05 0.05 0.05 0.01 0.02 0.05 0.09 0.15 0.12 0.12 0.06 0.04
0.00 0.00 0.00 0.00 0.00 0.00 0.00 0.00 0.01 0.02 0.00 0.00 0.01 0.02 0.01 0.00 0.03 0.00 0.00 0.00 0.00 0.00 0.00 0.00 0.02 0.05 0.05 0.05 0.06 0.04 0.00 0.00 0.02 0.06 0.07 0.08 0.09 0.10
0.00 0.00 0.00 0.00 0.00 0.00 0.00 0.00 0.00 0.01 0.01 0.00 0.00 0.00 0.00 0.00 0.00 0.00 0.00 0.00 0.00 0.01 0.01 0.01 0.01 0.04 0.04 0.01 0.01 0.00 0.00 0.00 0.00 0.01 0.00 0.02 0.03 0.04
0.00 0.00 0.00 0.00 0.00 0.00 0.00 0.00 0.00 0.00 0.00 0.00 0.00 0.00 0.00 0.00 0.00 0.00 0.00 0.00 0.00 0.00 0.00 0.04 0.07 0.07 0.01 0.00 0.00 0.00 0.00 0.00 0.00 0.00 0.00 0.00 0.00 0.02
0.00 0.00 0.00 0.00 0.00 0.00 0.00 0.00 0.00 0.00 0.00 0.00 0.00 0.00 0.00 0.00 0.00 0.00 0.00 0.00 0.00 0.00 0.00 0.01 0.04 0.08 0.13 0.03 0.01 0.00 0.00 0.00 0.00 0.00 0.00 0.00 0.00 0.00
0.00 0.00 0.00 0.00 0.00 0.00 0.00 0.00 0.00 0.00 0.00 0.00 0.00 0.00 0.00 0.00 0.00 0.00 0.00 0.00 0.00 0.00 0.00 0.00 0.00 0.02 0.17 0.10 0.04 0.01 0.00 0.01 0.01 0.01 0.01 0.00 0.01 0.00
0.00 0.00 0.00 0.00 0.00 0.00 0.00 0.00 0.00 0.00 0.00 0.00 0.00 0.00 0.00 0.00 0.00 0.00 0.00 0.00 0.00 0.00 0.00 0.00 0.01 0.02 0.02 0.00 0.03 0.06 0.06 0.07 0.05 0.02 0.05 0.06 0.04 0.02
0.00 0.00 0.00 0.00 0.00 0.00 0.00 0.00 0.00 0.00 0.00 0.00 0.00 0.00 0.00 0.00 0.00 0.00 0.00 0.00 0.00 0.00 0.00 0.00 0.01 0.05 0.07 0.03 0.10 0.11 0.06 0.07 0.11 0.10 0.07 0.06 0.06 0.05
0.00 0.00 0.00 0.00 0.00 0.00 0.00 0.00 0.00 0.00 0.00 0.00 0.00 0.00 0.00 0.00 0.00 0.00 0.00 0.00 0.00 0.00 0.00 0.00 0.00 0.00 0.01 0.01 0.02 0.03 0.05 0.08 0.09 0.09 0.03 0.02 0.02 0.01
0.00 0.00 0.00 0.00 0.00 0.00 0.00 0.00 0.00 0.00 0.00 0.00 0.00 0.00 0.00 0.00 0.00 0.00 0.00 0.00 0.00 0.00 0.00 0.00 0.00 0.00 0.00 0.00 0.00 0.00 0.03 0.06 0.09 0.15 0.12 0.04 0.02 0.02
0.00 0.00 0.00 0.00 0.00 0.00 0.00 0.00 0.00 0.00 0.00 0.00 0.00 0.00 0.00 0.00 0.00 0.00 0.00 0.00 0.01 0.02 0.01 0.00 0.00 0.00 0.00 0.00 0.01 0.01 0.01 0.02 0.08 0.14 0.16 0.15 0.10 0.02
0.00 0.00 0.00 0.00 0.00 0.00 0.00 0.00 0.00 0.00 0.00 0.00 0.00 0.00 0.00 0.00 0.00 0.00 0.01 0.02 0.02 0.03 0.00 0.00 0.00 0.00 0.00 0.00 0.00 0.00 0.00 0.00 0.02 0.04 0.04 0.03 0.09 0.09
0.00 0.00 0.00 0.00 0.00 0.00 0.00 0.00 0.00 0.00 0.00 0.00 0.00 0.00 0.00 0.00 0.00 0.00 0.00 0.00 0.01 0.01 0.00 0.00 0.01 0.00 0.00 0.00 0.00 0.00 0.00 0.00 0.00 0.00 0.00 0.00 0.05 0.11
0.00 0.00 0.00 0.00 0.00 0.00 0.00 0.00 0.00 0.00 0.00 0.00 0.00 0.00 0.00 0.00 0.00 0.00 0.00 0.00 0.00 0.00 0.00 0.00 0.00 0.00 0.00 0.00 0.00 0.00 0.00 0.00 0.00 0.00 0.00 0.00 0.01 0.03
0.00 0.00 0.00 0.00 0.00 0.00 0.00 0.00 0.00 0.00 0.00 0.00 0.00 0.00 0.00 0.00 0.00 0.00 0.00 0.00 0.00 0.00 0.00 0.00 0.00 0.00 0.00 0.00 0.00 0.00 0.00 0.00 0.00 0.00 0.00 0.00 0.00 0.00
0.00 0.00 0.00 0.00 0.00 0.00 0.00 0.00 0.00 0.00 0.00 0.00 0.00 0.00 0.00 0.00 0.00 0.00 0.00 0.00 0.00 0.00 0.00 0.00 0.00 0.00 0.00 0.00 0.00 0.00 0.00 0.00 0.00 0.00 0.00 0.00 0.00 0.00
0.00 0.00 0.00 0.00 0.00 0.00 0.00 0.00 0.00 0.00 0.00 0.00 0.00 0.00 0.00 0.00 0.00 0.00 0.00 0.00 0.00 0.00 0.00 0.00 0.00 0.00 0.00 0.00 0.00 0.00 0.00 0.00 0.00 0.00 0.00 0.00 0.00 0.00
0.00 0.00 0.00 0.00 0.00 0.00 0.00 0.00 0.00 0.00 0.00 0.00 0.00 0.00 0.00 0.00 0.00 0.00 0.00 0.00 0.00 0.00 0.00 0.00 0.00 0.00 0.00 0.00 0.00 0.00 0.00 0.00 0.00 0.00 0.00 0.00 0.00 0.00
0.00 0.00 0.00 0.00 0.00 0.00 0.00 0.00 0.00 0.00 0.00 0.00 0.00 0.00 0.00 0.00 0.00 0.00 0.00 0.00 0.00 0.00 0.00 0.00 0.00 0.00 0.00 0.00 0.00 0.00 0.00 0.00 0.00 0.00 0.00 0.00 0.00 0.00
0.00 0.00 0.00 0.00 0.00 0.00 0.00 0.00 0.00 0.00 0.00 0.00 0.00 0.00 0.00 0.00 0.00 0.00 0.00 0.00 0.00 0.00 0.00 0.00 0.00 0.00 0.00 0.00 0.00 0.00 0.00 0.00 0.00 0.00 0.00 0.00 0.00 0.00
0.00 0.00 0.00 0.00 0.00 0.00 0.00 0.00 0.00 0.00 0.00 0.00 0.00 0.00 0.00 0.00 0.00 0.00 0.00 0.00 0.00 0.00 0.00 0.00 0.00 0.00 0.00 0.00 0.00 0.00 0.00 0.00 0.00 0.00 0.00 0.00 0.00 0.00
0.00 0.00 0.00 0.00 0.00 0.00 0.00 0.00 0.00 0.00 0.00 0.00 0.00 0.00 0.00 0.00 0.00 0.00 0.00 0.00 0.00 0.00 0.00 0.00 0.00 0.00 0.00 0.00 0.00 0.00 0.00 0.00 0.00 0.00 0.00 0.00 0.00 0.00
0.00 0.00 0.00 0.00 0.00 0.00 0.00 0.00 0.00 0.00 0.00 0.00 0.00 0.00 0.00 0.00 0.00 0.00 0.00 0.00 0.00 0.00 0.00 0.00 0.00 0.00 0.00 0.00 0.00 0.00 0.00 0.00 0.00 0.00 0.00 0.00 0.00 0.00
MSLP
1015.08 1014.90 1014.75 1014.61 1014.50 1014.28 1014.16 1014.18 1014.06 1013.94 1013.24 1012.40 1012.35 1011.73 1011.66 1011.72 1011.57 1011.69 1011.59 1011.80 1011.98 1011.70 1011.75 1011.73 1011.65 1011.50 1011.59 1011.77 1012.00 1012.11 1012.42 1012.82 1013.12 1013.43 1013.72 1014.05 1014.48 1014.75
1015.42 1015.30 1015.15 1014.89 1014.70 1014.46 1014.23 1014.01 1013.87 1013.77 1013.34 1012.61 1012.28 1012.05 1011.57 1011.29 1011.11 1011.21 1011.13 1011.06 1010.94 1011.06 1011.09 1011.05 1010.91 1010.96 1011.18 1011.17 1011.47 1011.85 1011.91 1012.23 1012.46 1012.79 1013.01 1013.33 1013.59 1014.01
1015.72 1015.61 1015.33 1015.13 1014.92 1014.61 1014.32 1014.05 1013.81 1013.73 1013.36 1012.60 1012.17 1011.76 1011.57 1011.28 1010.90 1010.85 1010.62 1010.51 1010.34 1010.34 1010.37 1010.27 1010.14 1010.24 1010.39 1010.51 1010.66 1011.06 1011.30 1011.45 1011.73 1012.12 1012.41 1012.65 1012.94 1013.23
1015.84 1015.70 1015.48 1015.15 1014.95 1014.73 1014.48 1014.22 1013.90 1013.52 1013.38 1012.82 1012.08 1011.71 1011.54 1011.14 1010.92 1010.79 1010.51 1009.99 1009.87 1009.57 1009.45 1009.48 1009.55 1009.65 1009.77 1009.66 1009.79 1010.17 1010.52 1010.76 1011.00 1011.22 1011.61 1011.87 1012.15 1012.54
1015.90 1015.71 1015.44 1015.25 1014.94 1014.67 1014.45 1014.22 1013.87 1013.45 1013.13 1012.81 1012.30 1011.75 1011.36 1011.05 1010.82 1010.52 1010.19 1010.00 1009.66 1009.30 1009.14 1009.06 1009.07 1009.12 1009.18 1009.25 1009.45 1009.36 1009.66 1009.96 1010.18 1010.48 1010.79 1011.08 1011.28 1011.63
1015.83 1015.57 1015.33 1015.11 1014.83 1014.54 1014.30 1014.08 1013.76 1013.45 1013.01 1012.67 1012.35 1011.89 1011.44 1010.96 1010.88 1010.72 1010.36 1010.05 1009.72 1009.16 1008.83 1008.69 1008.72 1008.85 1008.88 1008.91 1009.15 1009.24 1009.22 1009.46 1009.78 1010.11 1010.46 1010.55 1010.60 1010.83
1015.80 1015.47 1015.25 1015.05 1014.82 1014.51 1014.27 1014.05 1013.85 1013.46 1013.07 1012.77 1012.45 1012.02 1011.57 1011.13 1011.04 1010.86 1010.72 1010.33 1009.83 1009.27 1008.94 1008.72 1008.67 1008.65 1008.47 1008.57 1008.62 1008.63 1008.78 1008.94 1009.35 1009.49 1009.82 1010.10 1010.33 1010.21
1015.99 1015.59 1015.26 1015.10 1014.78 1014.48 1014.18 1013.86 1013.54 1013.24 1012.95 1012.79 1012.42 1012.23 1011.76 1011.29 1010.98 1010.86 1010.68 1010.48 1010.22 1009.37 1009.34 1008.96 1008.72 1008.48 1008.34 1008.14 1007.97 1008.00 1008.26 1008.76 1008.77 1008.94 1009.21 1009.44 1009.73 1009.76
1016.05 1015.64 1015.38 1015.25 1015.01 1014.67 1014.17 1013.71 1013.31 1013.03 1012.81 1012.58 1012.38 1012.18 1011.70 1011.21 1011.01 1010.65 1010.54 1010.49 1010.29 1009.52 1009.47 1009.15 1008.67 1008.55 1008.08 1007.78 1007.66 1007.65 1007.68 1007.95 1008.23 1008.51 1008.65 1008.84 1008.65 1008.65
1016.13 1015.88 1015.65 1015.36 1015.20 1014.98 1014.54 1014.10 1013.63 1013.09 1012.77 1012.42 1012.24 1012.04 1011.79 1011.32 1010.89 1010.55 1010.46 1010.28 1009.97 1009.67 1009.63 1009.64 1008.86 1008.54 1007.93 1007.70 1007.65 1007.79 1007.91 1007.99 1008.16 1008.27 1008.21 1008.01 1007.90 1008.04
1016.17 1015.99 1015.82 1015.50 1015.23 1014.98 1014.62 1014.37 1013.89 1013.29 1012.62 1012.38 1012.22 1012.04 1011.73 1011.29 1010.80 1010.63 1010.65 1010.64 1010.38 1010.21 1010.07 1010.07 1009.42 1009.04 1008.46 1008.17 1007.91 1007.94 1007.87 1007.89 1007.86 1007.90 1007.86 1007.77 1007.67 1007.82
1016.28 1016.02 1015.81 1015.61 1015.24 1014.89 1014.67 1014.48 1014.10 1013.77 1013.25 1012.81 1012.55 1012.21 1011.93 1011.59 1011.12 1011.03 1010.84 1010.89 1010.80 1010.70 1010.61 1010.56 1009.92 1009.54 1009.21 1008.66 1008.53 1008.38 1008.21 1008.01 1007.76 1007.81 1007.75 1007.54 1007.42 1007.33
1016.68 1016.31 1015.99 1015.67 1015.31 1014.99 1014.77 1014.64 1014.43 1014.03 1013.69 1013.42 1013.18 1012.83 1012.49 1012.17 1011.87 1011.58 1011.33 1011.14 1011.02 1011.36 1011.32 1010.65 1010.74 1010.35 1010.02 1009.62 1008.97 1008.74 1008.84 1008.80 1008.54 1008.35 1008.15 1007.84 1007.53 1007.59
1016.75 1016.42 1015.97 1015.55 1015.19 1014.93 1014.81 1014.70 1014.41 1014.23 1014.12 1014.11 1013.91 1013.69 1013.38 1013.06 1012.56 1012.23 1011.92 1011.63 1011.62 1011.91 1011.71 1011.27 1011.48 1011.36 1011.10 1010.64 1010.18 1009.36 1009.24 1009.43 1009.29 1009.26 1008.92 1008.29 1007.79 1007.62
1016.64 1016.24 1015.82 1015.41 1015.32 1015.05 1014.95 1014.82 1014.60 1014.56 1014.63 1014.63 1014.64 1014.48 1014.17 1013.67 1013.10 1012.67 1012.34 1012.24 1012.08 1012.05 1011.97 1011.94 1011.95 1011.62 1011.38 1011.25 1011.00 1010.47 1010.15 1009.63 1009.76 1009.62 1009.30 1009.00 1008.52 1008.05
1016.41 1015.96 1015.67 1015.51 1015.45 1015.27 1015.12 1015.06 1014.99 1014.92 1014.93 1014.93 1014.95 1014.77 1014.45 1014.13 1013.89 1013.59 1013.46 1013.14 1012.98 1012.78 1012.31 1012.13 1012.00 1011.97 1011.78 1011.40 1011.08 1010.93 1010.78 1010.64 1010.15 1009.86 1009.35 1008.85 1008.51 1008.22
1016.39 1016.13 1016.00 1015.96 1015.77 1015.69 1015.61 1015.41 1015.23 1015.18 1015.28 1015.28 1015.28 1015.12 1014.99 1014.69 1014.49 1014.17 1014.11 1014.12 1014.13 1013.88 1013.32 1012.60 1012.19 1011.99 1011.78 1011.56 1011.27 1011.03 1010.83 1010.68 1010.45 1010.22 1009.53 1009.12 1008.40 1008.09
1016.58 1016.45 1016.31 1016.14 1015.93 1015.77 1015.72 1015.64 1015.45 1015.35 1015.34 1015.32 1015.30 1015.16 1015.12 1014.93 1014.76 1014.51 1014.36 1014.45 1014.50 1014.25 1013.94 1013.51 1013.08 1012.53 1012.09 1011.46 1010.98 1011.03 1010.97 1010.82 1010.55 1009.87 1009.60 1009.32 1008.23 1007.79
1016.54 1016.27 1016.10 1015.87 1015.65 1015.66 1015.56 1015.52 1015.44 1015.27 1015.16 1015.18 1015.17 1015.21 1015.13 1014.91 1014.71 1014.59 1014.52 1014.49 1014.40 1014.24 1013.90 1013.63 1013.39 1013.27 1012.88 1012.22 1011.20 1010.56 1010.72 1010.36 1010.18 1009.75 1009.31 1008.98 1008.36 1007.29
1016.19 1015.88 1015.58 1015.35 1015.26 1015.24 1015.16 1015.18 1015.10 1015.06 1015.05 1014.92 1014.82 1014.82 1014.92 1014.85 1014.63 1014.48 1014.40 1014.39 1014.21 1013.99 1013.76 1013.45 1013.16 1012.85 1012.68 1012.00 1011.38 1010.43 1010.04 1009.98 1009.70 1009.14 1008.53 1007.98 1007.43 1006.52
1015.40 1015.24 1015.01 1014.84 1014.68 1014.58 1014.60 1014.68 1014.70 1014.68 1014.67 1014.69 1014.58 1014.57 1014.39 1014.47 1014.29 1014.16 1014.08 1013.91 1013.82 1013.63 1013.41 1013.03 1012.35 1011.79 1011.65 1011.44 1011.16 1010.12 1009.19 1008.77 1008.39 1008.12 1007.65 1007.19 1006.48 1005.73
1014.46 1014.45 1014.07 1014.01 1014.05 1014.09 1014.07 1014.08 1014.12 1014.12 1014.10 1014.18 1014.12 1013.92 1013.72 1013.77 1013.75 1013.67 1013.65 1013.68 1013.48 1013.23 1012.82 1012.22 1011.66 1011.41 1011.34 1011.06 1010.29 1009.37 1008.31 1007.72 1007.21 1006.82 1006.61 1006.48 1006.07 1005.14
1013.24 1013.24 1013.12 1013.07 1013.09 1013.25 1013.32 1013.40 1013.44 1013.42 1013.39 1013.42 1013.45 1013.26 1013.16 1013.31 1013.04 1013.16 1013.19 1013.17 1013.04 1012.75 1012.38 1011.83 1011.43 1011.12 1010.82 1010.40 1009.63 1008.67 1007.79 1007.08 1006.53 1005.99 1005.33 1004.87 1004.50 1003.99
Thickness
5755 5756 5756 5757 5756 5757 5756 5754 5752 5746 5752 5764 5762 5771 5770 5768 5769 5766 5764 5758 5754 5751 5749 5752 5758 5762 5763 5762 5762 5762 5762 5759 5757 5757 5755 5753 5752 5749
5749 5748 5748 5748 5748 5750 5750 5751 5752 5750 5748 5757 5760 5762 5767 5766 5767 5765 5764 5761 5760 5756 5756 5759 5762 5762 5762 5762 5761 5759 5760 5758 5758 5757 5756 5754 5754 5751
5741 5740 5741 5740 5740 5742 5743 5745 5747 5747 5747 5752 5757 5761 5761 5762 5764 5763 5764 5763 5762 5762 5760 5762 5764 5764 5763 5762 5763 5760 5758 5758 5757 5756 5755 5754 5754 5752
5735 5733 5733 5735 5735 5735 5736 5738 5739 5743 5743 5743 5750 5754 5755 5759 5759 5758 5760 5762 5763 5764 5764 5764 5762 5762 5760 5760 5759 5758 5757 5756 5757 5756 5754 5753 5753 5752
5728 5727 5728 5728 5729 5729 5729 5730 5732 5735 5739 5740 5741 5746 5749 5751 5753 5754 5756 5757 5759 5762 5762 5762 5760 5760 5760 5758 5755 5755 5755 5755 5755 5754 5753 5752 5752 5752
5722 5722 5722 5722 5722 5723 5724 5724 5726 5726 5730 5733 5734 5736 5738 5742 5743 5742 5745 5750 5751 5755 5757 5757 5756 5755 5755 5755 5752 5750 5751 5750 5749 5749 5748 5749 5749 5749
5714 5715 5715 5716 5716 5717 5716 5716 5717 5718 5720 5721 5723 5725 5726 5729 5730 5733 5733 5735 5741 5745 5747 5748 5749 5748 5749 5749 5749 5749 5748 5746 5743 5744 5743 5743 5743 5746
5706 5707 5708 5707 5707 5708 5709 5710 5712 5710 5710 5710 5713 5713 5716 5719 5721 5722 5722 5722 5721 5732 5734 5736 5740 5739 5740 5742 5744 5744 5742 5739 5739 5739 5738 5737 5737 5740
5698 5699 5700 5699 5698 5699 5701 5703 5705 5706 5706 5704 5703 5703 5706 5710 5711 5711 5712 5712 5712 5718 5719 5720 5727 5728 5733 5734 5735 5737 5738 5737 5735 5733 5733 5732 5735 5738
5691 5691 5690 5690 5689 5688 5689 5690 5692 5694 5694 5695 5694 5694 5694 5696 5699 5700 5699 5701 5703 5705 5706 5703 5713 5715 5722 5724 5725 5724 5724 5725 5724 5725 5726 5727 5731 5732
5683 5682 5681 5680 5680 5679 5679 5678 5679 5681 5683 5682 5681 5680 5681 5682 5684 5684 5681 5680 5680 5683 5688 5685 5693 5696 5702 5705 5708 5708 5711 5713 5715 5716 5718 5719 5720 5721
5674 5673 5673 5672 5672 5672 5671 5668 5667 5666 5666 5667 5666 5666 5665 5664 5665 5665 5665 5662 5661 5661 5665 5665 5673 5677 5677 5685 5688 5692 5694 5697 5700 5703 5705 5709 5712 5715
5664 5664 5664 5665 5664 5663 5661 5657 5654 5653 5652 5649 5647 5646 5646 5646 5645 5645 5647 5647 5646 5643 5644 5651 5651 5655 5660 5664 5669 5673 5674 5676 5679 5682 5686 5692 5697 5699
5656 5655 5655 5655 5654 5653 5650 5646 5643 5640 5636 5632 5629 5627 5626 5627 5628 5628 5630 5630 5629 5627 5629 5633 5633 5633 5636 5640 5645 5653 5654 5656 5658 5661 5666 5672 5679 5684
5646 5646 5646 5647 5644 5641 5638 5634 5631 5626 5622 5618 5614 5612 5612 5613 5614 5614 5615 5615 5615 5615 5615 5616 5615 5618 5622 5623 5624 5629 5631 5637 5639 5643 5648 5652 5657 5665
5639 5639 5639 5637 5633 5630 5626 5622 5618 5615 5611 5607 5603 5602 5602 5601 5599 5597 5596 5598 5599 5600 5604 5604 5604 5604 5603 5607 5611 5610 5612 5614 5619 5624 5632 5639 5642 5646
5630 5628 5626 5623 5620 5617 5613 5610 5607 5604 5600 5596 5593 5593 5592 5592 5591 5590 5588 5586 5584 5584 5587 5593 5596 5596 5596 5596 5596 5596 5597 5599 5601 5606 5614 5621 5629 5633
5619 5617 5614 5612 5610 5608 5604 5601 5599 5596 5592 5588 5585 5586 5585 5585 5584 5583 5581 5579 5577 5576 5577 5579 5579 5580 5581 5586 5589 5585 5583 5585 5585 5593 5596 5601 5615 5619
5609 5607 5606 5605 5604 5599 5596 5594 5592 5589 5586 5583 5581 5579 5578 5579 5578 5576 5574 5572 5570 5568 5568 5568 5568 5566 5564 5567 5573 5576 5575 5579 5578 5581 5584 5587 5597 5607
5602 5602 5602 5600 5597 5594 5592 5589 5586 5583 5580 5579 5577 5575 5572 5571 5571 5570 5568 5565 5563 5562 5559 5558 5558 5558 5556 5560 5567 5570 5564 5566 5567 5574 5580 5583 5588 5598
5599 5597 5596 5595 5593 5590 5587 5584 5581 5579 5576 5574 5573 5570 5569 5566 5565 5563 5561 5561 5560 5557 5555 5553 5554 5556 5555 5554 5556 5564 5566 5562 5565 5568 5572 5575 5582 5590
5596 5594 5594 5592 5589 5585 5582 5580 5577 5575 5573 5570 5568 5567 5566 5563 5561 5559 5556 5554 5551 5550 5550 5551 5551 5548 5546 5545 5551 5556 5561 5562 5560 5562 5563 5563 5569 5578
5596 5593 5591 5589 5587 5582 5579 5576 5574 5573 5571 5568 5565 5565 5564 5560 5559 5555 5551 5547 5545 5543 5543 5545 5544 5542 5540 5539 5542 5547 5551 5552 5552 5553 5558 5558 5562 5569